sat.trackr.live / text

‹ back to catalog

STARLINK-37454

NORAD 69375 · 2026-123Y

PAYLOAD ACTIVE UNKNOWN

§ Identity

Operator
Country
US
Launch date
2026-06-04
Launch site
AFETR
Launch vehicle
Mass (kg)
RCS (m²)

Purposes: comms

External: N2YO · Heavens-Above · Gunter

§ Orbital elements

Epoch: 2026-09-20T03:57:59.641632Z

Period
93.85 min
Inclination
53.1576°
Eccentricity
0.0001420
Mean motion
15.34407403 rev/d
Perigee alt
461.7 km
Apogee alt
463.7 km
Semi-major
6,840.8 km
B*
4.2606e-4
RAAN
143.6304°
Arg perigee
92.1754°
Mean anomaly
267.9411°
Rev number
1,681

§ Raw data

STARLINK-374541 69375U 26123Y   26263.16527363  .00014049  00000+0  42606-3 0  99942 69375  53.1576 143.6304 0001420  92.1754 267.9411 15.34407403 16812

JSON: /api/v1/satellites/69375 · /tle

For live sub-satellite position, see the globe view (requires WebGL).

§ Visibility from observer

Set your observer location to see the next 7 days of passes ≥ 10°. The values pass through the URL so the page stays shareable.

No JS? Fill the form by hand. The geolocation button needs JavaScript.